Location: *
(44.3526°S, 44.9014°W)
Time: 20:14:54
(UTC+00:00)

NOSS 3-1 (A) - Pass Details

Date: 13 May 2025
Orbit: 667 x 1541 km, 63.4° (Epoch: 12 June)

Event Time Altitude Azimuth Distance (km) Brightness Sun altitude
Rises 22:56:29 0° 219° (SW) 3,925 7.2 -34.3°
Reaches altitude 10° 22:59:26 10° 222° (SW) 2,823 6.4 -34.8°
Enters shadow 23:04:01 43° 241° (WSW) 1,253 4.3 -35.6°
